Location: Observatoire
(46.1952°N, 5.3391°E)
Time: 01:48:25
(UTC+01:00)

Tiros 1 despin weight - Pass Details

Date: 21 February 2026
Orbit: 556 x 593 km, 48.2° (Epoch: 9 March)

Event Time Altitude Azimuth Distance (km) Brightness Sun altitude
Rises 18:14:36 0° 285° (WNW) 2,736 ? -1.1°
Reaches altitude 10° 18:16:51 10° 286° (WNW) 1,838 ? -1.4°
Maximum altitude 18:21:03 83° 13° (NNE) 564 ? -2.2°
Drops below altitude 10° 18:25:15 10° 103° (ESE) 1,836 ? -2.9°
Enters shadow 18:27:14 - 104° (ESE) 2,622 ? -3.2°
Sets 18:27:30 0° 104° (ESE) 2,732 - -3.2°
